Temperature
21 20 20 20 20 20 21 21 21 20 20 20 20 20 20 19 19 19 19 19 19 19 19 19 19 19 19 19 19 19 19 19 18 18 18 18 17 17 17 17 17 17 17
23 21 20 20 20 20 21 21 21 21 21 21 20 20 20 20 20 20 20 20 19 19 19 19 19 19 19 20 20 19 19 19 19 18 18 17 17 18 18 18 17 17 17
22 21 20 20 20 20 21 21 21 21 21 21 21 20 20 20 20 20 20 20 20 20 20 20 20 20 20 20 20 20 20 19 19 18 18 18 18 18 18 18 18 18 17
22 21 21 20 20 21 21 21 21 21 21 21 21 20 20 20 20 20 20 20 20 20 20 20 20 20 20 20 20 20 19 19 19 19 18 18 18 18 18 18 18 18 18
22 21 21 21 21 21 21 21 21 21 21 21 20 20 20 20 20 20 20 20 20 20 20 20 20 20 20 20 20 19 19 19 19 18 18 18 18 18 18 18 18 18 18
22 21 21 21 21 21 21 21 21 21 21 21 20 20 20 20 20 20 20 20 20 20 20 20 20 20 20 20 19 19 19 18 18 18 18 18 18 18 18 18 18 18 18
22 22 21 21 21 21 21 21 21 21 21 21 20 20 20 20 20 20 20 20 20 20 20 20 20 20 19 19 19 19 19 18 18 18 18 18 18 18 18 18 18 18 18
23 22 21 21 21 21 21 21 21 21 21 20 20 20 20 20 20 20 20 20 20 20 20 20 20 19 19 19 19 19 19 18 18 18 18 18 18 18 17 17 17 18 18
22 22 21 21 20 20 20 20 20 20 20 20 20 20 20 20 20 20 20 20 20 19 19 19 19 19 19 19 19 19 19 18 18 18 18 18 18 18 17 17 17 17 17
22 21 21 21 20 20 20 20 20 20 20 20 20 20 20 20 20 20 19 19 19 19 19 19 19 19 19 19 19 18 18 18 18 18 18 18 18 18 17 17 17 17 17
21 21 21 20 20 20 20 20 20 20 20 19 19 19 19 19 19 19 19 19 19 19 19 19 19 19 18 18 18 18 18 18 18 18 18 18 18 18 17 17 17 17 17
21 21 20 20 20 19 19 19 19 19 19 19 19 19 19 19 19 19 19 19 19 19 18 18 18 18 18 18 18 18 18 18 18 18 18 18 18 18 18 17 17 17 17
21 20 20 19 19 19 19 19 19 19 19 19 19 19 19 19 19 19 19 19 19 18 18 18 18 18 18 18 18 18 18 18 18 18 18 18 18 18 18 18 17 17 17
20 20 20 19 19 19 19 19 19 19 19 19 19 19 19 19 19 19 19 18 18 18 18 18 17 18 18 18 18 18 18 18 18 18 18 18 18 18 18 18 18 18 17
20 20 20 20 19 19 19 19 19 19 19 19 19 19 19 19 19 18 18 18 18 18 17 17 17 17 17 17 17 18 18 18 18 18 18 18 18 18 18 18 18 18 18
19 19 19 19 19 19 19 18 18 19 19 19 19 19 18 18 18 18 18 18 18 18 17 17 17 17 17 17 17 17 17 18 18 18 18 18 18 18 18 18 18 18 18
18 18 18 18 18 18 18 18 18 18 18 19 19 19 18 18 17 17 18 18 18 17 17 17 17 17 17 17 17 17 17 17 17 17 17 18 18 18 18 18 18 17 18
17 18 18 18 18 18 18 18 18 18 18 18 18 18 18 17 17 17 17 18 17 17 17 17 17 17 17 17 17 17 17 17 17 17 17 17 17 18 18 18 18 18 18
17 17 17 17 17 17 17 17 17 17 17 17 17 18 17 17 17 17 17 17 17 17 17 17 16 16 16 16 16 16 16 16 17 17 17 17 17 17 18 18 18 18 18
17 17 17 17 17 16 16 16 16 16 16 16 17 17 17 17 17 17 17 17 17 17 17 16 16 16 16 16 16 16 16 16 16 16 17 17 17 17 17 17 18 18 18
17 17 17 17 17 16 16 16 16 16 16 16 16 16 16 17 17 17 17 17 17 17 17 16 16 16 16 16 16 16 16 16 16 16 16 17 17 17 17 17 17 17 18
17 17 16 16 16 16 16 15 15 15 16 16 16 16 16 17 17 17 17 17 17 17 17 16 16 16 16 15 15 16 16 16 16 16 16 16 16 16 16 17 17 17 17
16 16 16 16 16 16 16 16 16 16 16 16 16 16 16 16 17 17 17 17 17 17 17 17 16 16 16 15 15 15 16 16 16 16 16 16 16 16 16 16 17 17 17
16 16 16 16 16 16 16 16 16 15 15 15 15 16 16 16 17 17 17 17 17 17 17 17 16 16 16 16 15 15 15 15 15 15 15 16 16 16 16 16 17 17 17
16 16 16 16 16 16 15 15 15 15 15 15 15 15 15 16 16 16 16 16 16 16 16 16 16 16 16 16 15 15 15 15 15 15 15 16 16 16 16 16 16 17 17
16 16 16 16 16 15 15 15 14 14 14 14 14 14 15 15 15 15 16 16 16 16 16 16 16 16 16 16 15 15 15 15 15 14 14 15 15 16 16 16 16 16 16
Wind_Speed
10 12 21 20 19 18 18 17 17 18 18 18 19 20 20 19 18 17 16 15 14 13 12 11 11 11 11 12 12 13 13 14 14 15 15 14 14 14 14 15 14 14 16
15 18 22 21 20 19 18 18 18 18 18 18 18 19 19 18 18 17 16 15 14 13 12 12 11 11 11 12 12 13 13 13 14 14 14 13 13 14 14 14 13 13 15
15 17 21 21 21 20 19 18 18 17 17 17 17 17 18 18 17 17 16 15 14 13 12 12 11 11 11 11 11 12 12 12 12 13 12 9 10 13 13 13 13 14 14
14 15 18 22 21 21 19 18 17 17 17 16 16 16 16 17 16 16 15 14 13 12 12 11 11 11 11 10 10 10 10 11 11 11 8 7 7 11 13 14 14 14 14
13 14 18 23 22 21 20 19 18 17 16 16 15 15 15 15 15 14 14 13 12 11 11 10 10 10 9 9 9 9 9 9 9 8 6 5 4 10 13 14 14 14 14
13 13 18 23 23 22 20 19 18 17 16 16 15 15 15 14 14 14 13 11 11 10 10 9 9 9 9 8 8 8 7 7 7 4 4 4 5 9 12 13 14 14 15
13 11 16 23 23 22 21 20 18 17 16 16 15 15 14 14 13 13 12 11 10 10 10 9 9 9 9 9 8 8 7 7 5 3 3 5 7 10 12 14 15 15 15
14 10 14 21 22 21 20 19 18 17 16 16 15 15 14 14 13 13 12 12 11 11 11 11 10 10 10 10 10 9 9 8 6 5 6 6 8 11 14 16 16 16 16
11 9 8 14 18 19 19 18 17 17 16 16 16 15 15 14 14 14 13 13 13 13 12 12 12 12 11 11 11 10 10 10 8 6 6 7 8 10 14 17 18 18 18
8 7 6 8 11 12 14 16 16 16 16 16 16 16 16 16 15 15 15 14 15 14 14 14 14 14 13 13 13 12 12 11 9 8 8 8 10 11 14 17 19 20 20
8 6 5 5 5 7 8 11 14 15 15 16 16 17 17 14 14 14 15 16 16 16 16 16 16 16 15 15 15 14 13 10 9 9 10 11 13 13 15 17 20 21 21
9 8 5 4 4 4 5 5 7 9 11 13 12 13 13 12 13 14 14 18 18 18 18 18 18 17 16 13 14 15 12 11 11 11 12 14 15 15 16 17 19 22 23
7 7 5 4 4 3 1 1 3 6 7 9 11 12 11 10 11 13 11 13 15 17 16 16 17 15 14 13 12 12 12 12 11 11 13 16 17 17 17 17 19 21 23
8 7 6 5 4 2 1 1 3 5 6 7 11 13 11 7 7 9 9 11 11 12 11 12 10 12 14 15 13 11 12 11 11 12 13 17 18 18 17 18 18 20 22
8 7 7 6 5 3 2 3 5 6 7 9 11 13 14 8 9 8 7 10 11 12 10 8 7 8 9 10 12 11 10 11 12 12 12 15 16 16 17 17 18 18 20
8 7 5 5 4 3 3 5 6 7 8 10 10 13 16 13 9 9 9 8 9 11 11 8 7 7 7 6 7 8 8 9 10 11 12 13 16 16 16 16 17 17 18
6 5 4 2 2 3 6 8 8 8 8 7 8 12 14 14 12 9 9 9 8 10 9 6 5 4 4 4 5 6 6 7 8 9 11 12 13 14 16 17 17 17 17
5 3 2 1 3 5 6 8 8 7 7 6 6 8 11 14 15 10 9 9 7 6 5 4 4 4 4 4 4 4 5 5 7 9 10 11 11 11 13 15 17 18 18
5 4 4 5 5 5 6 7 8 6 6 4 4 5 8 13 15 10 9 7 6 4 4 4 3 3 3 4 4 4 4 5 6 7 8 9 10 11 12 13 16 18 19
6 5 5 5 6 6 5 5 4 3 3 3 4 4 8 11 12 8 7 6 5 5 4 4 3 3 2 3 3 3 3 4 5 6 7 6 7 9 10 11 11 13 17
7 6 6 7 7 6 4 4 4 4 3 2 2 5 8 9 9 7 6 6 6 6 6 5 3 3 2 2 1 1 2 3 3 4 4 4 4 5 6 8 9 10 10
6 6 6 7 7 7 4 3 3 3 2 1 2 3 5 6 6 6 7 7 7 5 5 6 4 3 2 3 3 1 2 2 1 1 1 2 2 2 3 5 6 8 10
6 6 5 5 5 6 6 4 3 3 3 4 5 4 5 5 3 4 7 6 7 7 7 7 6 6 4 3 3 3 3 3 2 2 1 1 2 2 3 4 5 8 9
4 4 4 4 5 5 5 5 5 4 3 3 3 4 6 5 4 2 3 6 7 6 7 7 7 5 5 4 3 3 2 3 2 1 2 2 3 3 4 4 5 7 8
5 4 4 4 3 3 3 4 4 3 1 2 3 5 6 6 6 6 4 2 4 6 7 7 7 7 6 5 4 3 2 1 2 2 3 3 3 3 4 5 5 5 6
7 6 5 4 4 3 2 1 2 1 2 3 3 4 4 4 4 6 5 4 3 4 6 7 8 9 8 6 5 5 4 3 4 4 4 3 3 3 4 4 3 3 4
Wind_Direction
169 165 172 164 157 152 148 146 144 141 139 139 141 144 147 149 151 155 157 158 158 157 153 146 138 133 131 130 128 126 126 128 130 132 133 130 126 123 121 119 119 120 121
156 162 170 165 159 155 151 150 148 146 144 145 147 149 152 154 156 157 159 159 160 160 156 151 147 143 140 138 136 134 135 136 138 140 139 138 136 132 129 126 125 127 126
149 159 167 164 161 157 154 153 152 151 149 150 152 154 157 159 160 161 161 161 161 161 159 158 155 151 148 146 144 143 144 145 146 146 137 131 140 144 140 139 136 132 131
147 157 163 165 162 160 158 157 156 155 155 156 157 159 161 164 165 165 165 164 164 164 163 163 161 159 155 153 151 151 152 152 152 147 136 140 148 155 153 150 147 142 139
147 156 166 166 165 164 163 162 162 161 162 163 165 166 168 170 172 172 172 171 171 170 170 170 169 165 162 161 160 160 161 160 160 149 150 160 158 161 162 161 159 155 150
151 157 169 168 168 168 167 167 168 168 170 172 173 175 177 178 180 181 182 182 181 181 180 179 177 174 172 172 172 174 175 178 170 146 168 186 191 182 177 174 171 168 162
153 158 171 170 171 171 172 173 174 175 177 180 183 184 185 187 189 190 191 192 192 192 191 190 189 186 186 187 188 190 194 200 181 188 213 221 220 212 200 190 184 179 174
155 156 170 172 174 175 177 179 180 182 184 187 191 193 194 196 197 199 200 202 203 204 204 203 203 202 202 202 203 205 208 215 215 212 225 234 236 227 215 204 195 190 185
151 152 163 170 175 178 181 184 187 189 191 195 198 201 203 204 206 208 210 212 214 215 216 216 216 217 217 218 219 220 221 225 224 217 230 233 239 232 221 211 205 199 194
140 148 148 155 164 172 182 189 192 197 201 204 206 208 210 212 214 216 218 221 223 224 226 227 228 229 229 229 231 232 234 237 236 232 237 241 244 239 229 220 213 207 201
154 149 138 134 140 155 174 197 202 207 211 213 216 217 217 219 222 225 226 227 231 233 233 234 235 236 236 237 237 238 240 238 238 240 240 244 246 244 237 230 222 214 209
166 166 148 136 121 126 182 208 221 223 223 221 220 225 224 220 223 230 234 235 237 239 240 240 240 240 241 239 240 242 240 237 238 243 244 245 246 244 242 237 230 221 215
150 158 148 137 111 109 133 262 247 237 233 229 226 226 229 226 227 234 235 241 246 246 245 245 244 237 234 233 233 233 235 239 241 244 246 248 247 243 242 241 234 228 222
135 145 137 135 130 143 178 252 250 241 235 231 228 226 226 229 229 231 234 235 239 244 245 244 241 234 233 233 233 232 235 237 240 242 245 250 249 245 244 243 239 235 231
129 138 146 145 152 176 212 243 239 236 234 236 233 229 227 229 234 232 233 235 236 238 240 240 236 232 230 231 232 229 233 236 239 242 246 251 253 250 246 245 244 241 237
120 130 132 138 167 183 232 259 258 246 238 232 228 229 230 233 236 234 235 235 236 236 236 235 229 228 227 224 232 229 233 240 242 244 247 252 255 256 254 251 251 247 243
105 113 126 157 205 229 237 243 248 246 241 230 228 230 234 238 240 237 236 237 235 230 229 228 223 210 211 213 227 233 234 239 241 246 249 250 254 257 256 255 255 251 246
65 66 42 340 263 257 261 261 257 250 240 237 234 237 240 242 242 237 234 235 229 218 209 205 199 197 206 208 218 230 231 234 240 244 249 250 252 256 257 256 254 251 246
33 26 4 342 325 301 282 266 260 250 244 245 247 241 248 247 243 232 228 225 206 197 194 193 184 186 197 207 219 231 235 236 242 249 249 250 249 249 252 255 255 253 249
25 17 10 349 338 326 310 301 303 300 255 235 243 247 251 247 238 220 214 206 188 184 183 180 170 174 188 194 218 238 248 249 247 246 251 255 254 253 251 251 252 253 250
35 24 16 6 358 355 344 334 329 319 289 251 245 264 252 239 225 202 199 191 185 185 187 180 164 174 185 164 155 290 297 269 257 247 246 247 254 259 257 254 249 248 250
34 28 24 16 6 359 345 317 296 307 313 346 353 305 276 253 229 207 199 193 189 183 183 181 168 164 179 173 162 163 304 326 321 303 269 231 262 278 277 274 264 254 248
24 17 17 9 5 3 357 347 343 354 357 14 7 345 320 304 260 219 208 198 193 187 192 191 180 171 182 194 190 165 178 224 288 318 316 312 321 305 300 298 282 271 259
359 352 352 353 357 358 10 37 47 36 19 356 339 336 338 343 334 304 239 213 203 199 198 195 187 179 168 183 199 212 197 171 175 298 313 313 310 292 297 301 299 290 273
312 311 308 319 338 345 12 44 62 52 5 324 337 348 350 353 360 3 343 273 228 216 213 201 187 187 183 180 181 178 187 193 188 200 262 303 312 289 287 290 294 295 290
292 290 287 296 303 309 333 22 67 50 352 350 346 345 342 338 345 356 356 341 293 247 226 214 204 197 197 191 190 184 176 173 189 196 226 255 285 290 296 293 296 303 305
Height
1496 1501 1505 1509 1512 1515 1518 1520 1523 1525 1527 1529 1531 1532 1534 1536 1537 1538 1539 1540 1541 1542 1544 1545 1546 1547 1548 1548 1549 1549 1550 1550 1551 1551 1552 1552 1553 1554 1554 1555 1555 1556 1556
1494 1500 1505 1509 1512 1515 1518 1521 1523 1525 1528 1530 1531 1533 1534 1536 1537 1539 1540 1541 1542 1543 1545 1546 1547 1548 1549 1549 1550 1550 1551 1551 1552 1552 1553 1554 1555 1556 1556 1557 1557 1558 1558
1495 1500 1504 1509 1513 1516 1519 1521 1524 1526 1528 1530 1532 1534 1535 1537 1538 1540 1541 1542 1543 1545 1546 1546 1547 1548 1549 1550 1551 1552 1552 1553 1553 1554 1555 1555 1556 1557 1558 1559 1559 1560 1560
1497 1501 1505 1510 1514 1517 1519 1522 1524 1527 1529 1531 1533 1534 1536 1538 1539 1541 1542 1543 1544 1546 1547 1547 1548 1549 1550 1551 1552 1552 1553 1554 1554 1555 1556 1557 1557 1558 1559 1560 1561 1561 1562
1498 1502 1506 1510 1514 1517 1520 1522 1525 1527 1529 1531 1533 1535 1536 1538 1540 1541 1543 1544 1545 1546 1547 1548 1549 1550 1550 1551 1552 1553 1554 1555 1555 1556 1557 1558 1558 1559 1560 1561 1562 1563 1563
1499 1503 1507 1511 1514 1518 1521 1523 1526 1528 1530 1532 1534 1535 1537 1538 1540 1542 1543 1544 1545 1546 1547 1548 1549 1550 1550 1551 1552 1553 1554 1555 1556 1556 1557 1558 1559 1560 1560 1561 1562 1563 1564
1499 1504 1508 1512 1515 1518 1521 1524 1526 1528 1530 1532 1534 1535 1537 1538 1540 1541 1543 1544 1545 1546 1547 1548 1549 1550 1550 1551 1552 1553 1554 1555 1555 1556 1557 1558 1559 1559 1560 1561 1562 1564 1565
1500 1504 1508 1512 1516 1519 1522 1525 1527 1529 1531 1532 1534 1536 1537 1538 1540 1541 1542 1543 1544 1545 1546 1547 1548 1549 1550 1551 1552 1552 1553 1554 1555 1555 1556 1557 1558 1559 1560 1560 1562 1563 1564
1502 1505 1509 1512 1516 1520 1523 1525 1527 1529 1531 1532 1534 1535 1537 1538 1539 1540 1542 1543 1544 1544 1545 1546 1547 1548 1549 1550 1550 1551 1552 1552 1553 1554 1555 1556 1557 1557 1558 1559 1560 1562 1563
1503 1506 1510 1513 1516 1520 1523 1525 1528 1529 1531 1532 1534 1535 1536 1537 1538 1539 1540 1541 1542 1543 1544 1544 1545 1546 1547 1547 1548 1549 1549 1550 1551 1552 1553 1554 1555 1556 1557 1558 1559 1560 1561
1503 1507 1511 1514 1517 1520 1523 1526 1527 1529 1530 1531 1532 1533 1534 1535 1536 1537 1538 1539 1540 1541 1541 1542 1543 1543 1544 1545 1545 1546 1547 1547 1548 1549 1550 1551 1552 1553 1554 1555 1556 1558 1559
1503 1507 1511 1515 1518 1521 1523 1525 1526 1528 1528 1529 1530 1531 1532 1533 1534 1535 1536 1536 1537 1538 1538 1539 1540 1541 1541 1541 1542 1543 1543 1544 1545 1545 1546 1547 1548 1550 1551 1552 1554 1555 1556
1505 1508 1511 1515 1518 1520 1522 1523 1524 1525 1526 1527 1528 1529 1530 1531 1532 1532 1533 1533 1534 1535 1535 1536 1537 1537 1538 1538 1539 1540 1540 1541 1541 1542 1543 1544 1545 1546 1547 1549 1550 1552 1553
1506 1509 1512 1515 1517 1518 1519 1520 1521 1521 1521 1523 1524 1525 1526 1527 1528 1528 1529 1530 1530 1531 1532 1532 1533 1533 1534 1534 1535 1535 1536 1537 1537 1538 1540 1541 1542 1543 1543 1545 1547 1548 1549
1506 1509 1512 1513 1515 1516 1516 1516 1516 1516 1516 1517 1519 1521 1522 1523 1524 1525 1525 1526 1526 1527 1528 1528 1528 1529 1530 1530 1531 1532 1532 1533 1533 1535 1536 1537 1538 1539 1540 1541 1543 1544 1545
1506 1508 1510 1512 1513 1513 1513 1513 1512 1512 1511 1512 1513 1515 1517 1519 1520 1521 1521 1521 1522 1522 1522 1523 1523 1524 1525 1525 1526 1527 1528 1528 1529 1530 1531 1533 1534 1535 1536 1537 1538 1540 1541
1506 1508 1508 1510 1510 1510 1509 1508 1507 1506 1506 1505 1506 1509 1511 1513 1515 1516 1516 1516 1517 1517 1517 1518 1518 1518 1519 1520 1521 1522 1523 1524 1525 1526 1527 1528 1529 1530 1531 1532 1534 1535 1537
1505 1506 1507 1506 1505 1505 1504 1501 1499 1497 1497 1498 1499 1502 1505 1507 1509 1510 1511 1511 1512 1512 1512 1513 1513 1513 1514 1515 1515 1517 1518 1518 1519 1520 1521 1522 1523 1524 1525 1527 1529 1530 1532
1504 1504 1504 1503 1502 1500 1497 1494 1491 1488 1488 1490 1493 1496 1498 1501 1503 1504 1505 1506 1507 1507 1507 1508 1509 1509 1510 1511 1511 1512 1513 1513 1514 1515 1515 1516 1517 1518 1519 1520 1522 1524 1526
1503 1502 1502 1501 1499 1496 1493 1491 1487 1483 1481 1483 1486 1489 1493 1497 1498 1499 1500 1501 1503 1503 1504 1504 1505 1506 1507 1507 1507 1507 1508 1508 1508 1509 1510 1511 1512 1512 1513 1515 1516 1518 1520
1502 1502 1500 1499 1498 1495 1492 1489 1486 1483 1480 1479 1482 1486 1490 1492 1494 1495 1496 1498 1499 1500 1500 1501 1501 1502 1503 1503 1504 1504 1504 1503 1503 1504 1504 1505 1506 1507 1508 1509 1511 1513 1514
1502 1501 1500 1499 1497 1495 1492 1490 1487 1484 1481 1480 1481 1484 1486 1488 1491 1492 1493 1495 1496 1496 1496 1497 1497 1498 1499 1499 1500 1500 1500 1500 1499 1499 1500 1501 1502 1503 1504 1505 1506 1508 1509
1503 1502 1501 1499 1497 1495 1493 1491 1488 1485 1483 1482 1482 1484 1484 1485 1486 1488 1490 1491 1492 1492 1493 1493 1493 1494 1494 1495 1496 1497 1497 1496 1496 1497 1497 1497 1498 1499 1499 1501 1502 1503 1505
1505 1504 1502 1500 1497 1495 1492 1490 1488 1486 1484 1483 1482 1482 1482 1482 1482 1484 1485 1486 1487 1488 1489 1489 1489 1490 1491 1491 1492 1493 1494 1493 1493 1494 1495 1495 1495 1495 1495 1496 1497 1498 1500
1506 1504 1502 1500 1497 1494 1492 1489 1487 1484 1483 1481 1480 1479 1478 1478 1478 1478 1479 1480 1481 1483 1484 1485 1485 1486 1487 1488 1488 1489 1489 1490 1490 1491 1491 1492 1492 1491 1491 1491 1492 1494 1495
1506 1504 1501 1499 1496 1493 1490 1488 1485 1483 1481 1479 1477 1476 1475 1474 1473 1473 1473 1473 1475 1476 1478 1479 1481 1482 1483 1484 1484 1485 1485 1486 1486 1487 1487 1487 1487 1487 1487 1487 1488 1489 1491